CW8428 Weather Reports


Display with metric or nautical units.
time (UTC)temp
F
wind
direction
speed
MPH
gust
MPH
rain 1hr
in
rain 24hr
in
rain mn
in
humidity
%
barometer
mb
20260504011621 71 311 3.0 6.0 0.00 0.00 0.00 24 1010.5
20260504010628 70 304 3.0 7.0 0.00 0.00 0.00 23 1010.7
20260504005613 71 310 4.0 8.0 0.00 0.00 0.00 20 1010.8
20260504004623 72 320 4.0 8.0 0.00 0.00 0.00 17 1010.8
20260504003631 72 338 5.0 8.0 0.00 0.00 0.00 16 1010.9
20260504002619 72 340 5.0 9.0 0.00 0.00 0.00 16 1010.9
20260504001632 71 308 5.0 11.0 0.00 0.00 0.00 21 1011.0
20260504000622 71 304 9.0 12.0 0.00 0.00 0.00 19 1011.0
20260503235623 72 296 4.0 11.0 0.00 0.00 0.00 21 1011.0
20260503234630 73 311 7.0 11.0 0.00 0.00 0.00 17 1011.0
20260503233622 73 287 9.0 12.0 0.00 0.00 0.00 20 1011.1
20260503232630 73 279 8.0 11.0 0.00 0.00 0.00 19 1011.1
20260503231617 74 209 3.0 10.0 0.00 0.00 0.00 16 1011.2
20260503230626 74 293 4.0 8.0 0.00 0.00 0.00 16 1011.4
20260503225631 74 334 4.0 10.0 0.00 0.00 0.00 14 1011.5
20260503224621 74 254 7.0 13.0 0.00 0.00 0.00 17 1011.7
20260503223632 74 277 7.0 10.0 0.00 0.00 0.00 16 1011.9
20260503222641 74 229 8.0 12.0 0.00 0.00 0.00 14 1011.9
20260503221615 74 250 5.0 10.0 0.00 0.00 0.00 16 1012.0
20260503220624 74 205 4.0 8.0 0.00 0.00 0.00 16 1012.1
20260503215627 74 193 5.0 12.0 0.00 0.00 0.00 14 1012.4
20260503214614 74 279 7.0 12.0 0.00 0.00 0.00 15 1012.6
20260503213624 74 202 8.0 11.0 0.00 0.00 0.00 13 1012.7
20260503212612 73 190 6.0 12.0 0.00 0.00 0.00 16 1012.9
20260503211619 73 210 6.0 11.0 0.00 0.00 0.00 16 1013.0
20260503210626 73 246 6.0 12.0 0.00 0.00 0.00 17 1013.1
20260503205632 73 286 6.0 13.0 0.00 0.00 0.00 15 1013.1
20260503204619 73 289 6.0 10.0 0.00 0.00 0.00 17 1013.3
20260503203628 73 306 12.0 14.0 0.00 0.00 0.00 20 1013.3
20260503202615 72 5 7.0 12.0 0.00 0.00 0.00 19 1013.4
20260503201628 73 304 5.0 13.0 0.00 0.00 0.00 16 1013.6
20260503200617 73 291 5.0 12.0 0.00 0.00 0.00 17 1013.8
20260503195616 72 300 8.0 11.0 0.00 0.00 0.00 18 1013.9
20260503194627 72 309 1.0 8.0 0.00 0.00 0.00 16 1014.0
20260503193641 72 302 3.0 8.0 0.00 0.00 0.00 16 1014.1
20260503192631 72 211 5.0 9.0 0.00 0.00 0.00 17 1014.2
20260503191618 72 270 6.0 10.0 0.00 0.00 0.00 18 1014.3
20260503190613 72 284 6.0 9.0 0.00 0.00 0.00 16 1014.5
20260503185614 71 277 6.0 9.0 0.00 0.00 0.00 22 1014.6
20260503184625 70 287 6.0 8.0 0.00 0.00 0.00 25 1014.8
20260503183616 69 273 4.0 7.0 0.00 0.00 0.00 26 1014.9
20260503182631 68 275 1.0 8.0 0.00 0.00 0.00 26 1015.1
20260503181620 67 281 2.0 6.0 0.00 0.00 0.00 33 1015.3
20260503180640 66 266 2.0 6.0 0.00 0.00 0.00 32 1015.5
20260503175619 65 235 2.0 4.0 0.00 0.00 0.00 36 1015.5
20260503174647 64 227 3.0 5.0 0.00 0.00 0.00 35 1015.7
20260503173635 63 284 2.0 7.0 0.00 0.00 0.00 35 1015.9
20260503172625 62 275 1.0 4.0 0.00 0.00 0.00 36 1016.1
20260503171613 61 283 1.0 4.0 0.00 0.00 0.00 36 1016.3
20260503170622 60 269 3.0 6.0 0.00 0.00 0.00 38 1016.4
20260503150621 49 30 2.0 3.0 0.00 0.00 0.00 49 1018.1
20260503130619 37 270 0.0 3.0 0.00 0.00 0.00 76 1018.4
20260503110615 38 240 1.0 2.0 0.00 0.00 0.00 74 1018.4
20260503081613 42 200 1.0 3.0 0.00 0.00 0.00 61 1018.1
20260503080625 43 200 2.0 3.0 0.00 0.00 0.00 59 1018.2
20260503072617 48 136 2.0 4.0 0.00 0.00 0.00 49 1018.0
20260503071628 48 151 2.0 5.0 0.00 0.00 0.00 49 1018.0
20260503070619 48 153 1.0 3.0 0.00 0.00 0.00 50 1018.0
20260503054622 50 69 2.0 2.0 0.00 0.00 0.00 47 1017.9
20260503053649 50 69 1.0 3.0 0.00 0.00 0.00 47 1017.8
20260503052616 50 132 2.0 4.0 0.00 0.00 0.00 46 1017.8
20260503051629 50 133 2.0 3.0 0.00 0.00 0.00 48 1017.7
20260503050618 51 133 1.0 2.0 0.00 0.00 0.00 46 1017.6
20260503045617 52 133 1.0 4.0 0.00 0.00 0.00 44 1017.7
20260503044647 52 133 2.0 3.0 0.00 0.00 0.00 43 1017.7
20260503043618 53 136 1.0 2.0 0.00 0.00 0.00 43 1017.7
20260503042644 53 136 0.0 4.0 0.00 0.00 0.00 43 1017.7
20260503041632 54 140 0.0 3.0 0.00 0.00 0.00 42 1017.5
20260503040622 54 140 1.0 2.0 0.00 0.00 0.00 41 1017.5
20260503035623 54 140 1.0 3.0 0.00 0.00 0.00 41 1017.5
20260503034616 55 142 2.0 4.0 0.00 0.00 0.00 41 1017.3
20260503033622 56 119 1.0 3.0 0.00 0.00 0.00 41 1017.2
20260503032630 57 119 0.0 4.0 0.00 0.00 0.00 39 1017.0
20260503031621 57 113 3.0 6.0 0.00 0.00 0.00 38 1016.9
20260503030634 58 218 2.0 5.0 0.00 0.00 0.00 36 1016.8
20260503025613 59 215 3.0 7.0 0.00 0.00 0.00 33 1016.7
20260503024621 60 259 1.0 3.0 0.00 0.00 0.00 33 1016.7
20260503023645 62 259 2.0 8.0 0.00 0.00 0.00 30 1016.6
20260503022651 64 304 4.0 9.0 0.00 0.00 0.00 25 1016.6
20260503021622 65 327 4.0 9.0 0.00 0.00 0.00 24 1016.5
20260503020631 65 5 5.0 8.0 0.00 0.00 0.00 25 1016.3
20260503015613 66 302 4.0 9.0 0.00 0.00 0.00 24 1016.2
20260503014625 66 317 4.0 9.0 0.00 0.00 0.00 25 1016.3
20260503013619 66 294 4.0 9.0 0.00 0.00 0.00 26 1016.3
20260503012629 66 306 5.0 10.0 0.00 0.00 0.00 27 1016.3